Tracking 35331 objects as of 14-Sep-2026
HD Live streaming from Space Station
objects crossing your sky now

STARLINK-11559

Track STARLINK-11559 now!
10-day predictions
STARLINK-11559 is classified as:


NORAD ID: 62831
Int'l Code: 2025-019C
Launch date: January 27, 2025
Source: United States (US)
Launch site: AIR FORCE EASTERN TEST RANGE (AFETR)
Your satellite tracking list
Your tracking list is empty




NASA's NSSDC Master Catalog

Two Line Element Set (TLE):
1 62831U 25019C   26256.69236572  .00207930  00000-0  15767-2 0  9997
2 62831  42.9996 253.2156 0001485 297.8930  62.1787 15.70946600 93440
Source of the keplerian elements: AFSPC